Zurück zum Katalog

COSMOS 1035

AktivMilitärLEO
NORAD 11044·PAYLOAD·🇷🇺 Russia

Gestartet Oct 4, 1978 von Plesetsk Cosmodrome

Loading…

Nächste Überflüge (nächste 24 Stunden)

TLE

AktuellSource: Space-Track

Epoche: Sep 14, 2026, 03:52 UTC

1 11044U 78091B   26257.16114302 -.00000002  00000-0  81806-4 0  9995
2 11044  74.0386 331.3692 0048430 127.3385 256.8647 12.55707597197794

Verfolge COSMOS 1035 in Echtzeit mit AllMySat

Download on the App Store